Weather History for KSNT - April, 2014

Change the Weather History Date:

Tuesday, April 8, 2014

  Actual Average Record
Temperature  
Mean Temperature 39 °F 32 °F  
Max Temperature 60 °F 45 °F 74 °F (1924)
Min Temperature 17 °F 18 °F -10 °F (1921)
Degree Days  
Heating Degree Days 26 34  
Month to date heating degree days 278 275  
Since 1 July heating degree days 8593 8993  
Cooling Degree Days 0 0  
Month to date cooling degree days 0 0  
Year to date cooling degree days 0 0  
Moisture  
Dew Point 23 °F    
Average Humidity 58    
Maximum Humidity 92    
Minimum Humidity 24    
Precipitation  
Precipitation 0.00 in 0.06 in 0.39 in (2009)
Month to date precipitation 1.08 0.52  
Year to date precipitation 10.61 5.64  
Sea Level Pressure  
Sea Level Pressure 30.19 in    
Wind  
Wind Speed 2 mph (SSE)    
Max Wind Speed 14 mph    
Max Gust Speed 19 mph    
T = Trace of Precipitation, MM = Missing Value Source: NWS Daily Summary

Daily Weather History Graph

Daily Weather History Graph

Search for Another Location

Airport or City:

Trip Planner

Search our weather history database for the weather conditions in past years. The results will help you decide how hot, cold, wet, or windy it might be!

Date:

Astronomy

Apr. 08, 2014 Rise Set
Actual Time 7:08 AM MDT 8:15 PM MDT
Civil Twilight 6:38 AM MDT 8:45 PM MDT
Nautical Twilight 6:03 AM MDT 9:20 PM MDT
Astronomical Twilight 5:25 AM MDT 9:58 PM MDT
Moon 2:00 PM MDT (4/8) 3:36 AM MDT (4/8)
Length of Visible Light 14h 06m
Length of Day
13h 07m
Waxing Gibbous, 63% of the Moon is Illuminated
Apr 8
Waxing Gibbous
Apr 15
Full
Apr 22
Last Quarter
Apr 29
New
May 6
First Quarter

Hourly Weather History & Observations

Time (MDT) Temp. Windchill Dew Point Humidity Pressure Visibility Wind Dir Wind Speed Gust Speed Precip Events Conditions
12:51 AM 30.9 °F - 24.1 °F 76% 30.25 in - Calm Calm - N/A   Unknown
1:51 AM 27.0 °F 23.0 °F 21.9 °F 81% 30.25 in - SSE 3.5 mph - N/A   Unknown
2:51 AM 25.0 °F 20.7 °F 21.9 °F 88% 30.25 in - South 3.5 mph - N/A   Unknown
3:51 AM 24.1 °F - 21.0 °F 88% 30.25 in - Calm Calm - N/A   Unknown
4:51 AM 21.0 °F 16.2 °F 19.0 °F 92% 30.26 in - South 3.5 mph - N/A   Unknown
5:51 AM 19.9 °F - 18.0 °F 92% 30.26 in - Calm Calm - N/A   Unknown
6:51 AM 19.0 °F - 17.1 °F 92% 30.27 in - Calm Calm - N/A   Unknown
7:51 AM 19.0 °F 13.9 °F 17.1 °F 92% 30.31 in - East 3.5 mph - N/A   Unknown
8:51 AM 24.1 °F 18.2 °F 19.9 °F 84% 30.32 in - ENE 4.6 mph - N/A   Unknown
9:51 AM 28.0 °F - 21.9 °F 78% 30.30 in - Calm Calm - N/A   Unknown
10:51 AM 34.0 °F 31.0 °F 24.1 °F 67% 30.28 in - NW 3.5 mph - N/A   Unknown
11:51 AM 41.0 °F - 23.0 °F 49% 30.23 in - Calm Calm - N/A   Unknown
12:51 PM 45.0 °F - 21.9 °F 40% 30.20 in - Calm Calm - N/A   Unknown
1:51 PM 54.0 °F - 23.0 °F 30% 30.14 in - Variable 4.6 mph - N/A   Unknown
2:51 PM 57.0 °F - 21.9 °F 26% 30.13 in - Calm Calm - N/A   Unknown
3:51 PM 57.0 °F - 23.0 °F 27% 30.10 in - West 8.1 mph - N/A   Unknown
4:51 PM 55.9 °F - 24.1 °F 29% 30.10 in - Variable 4.6 mph - N/A   Unknown
5:51 PM 57.0 °F - 24.1 °F 28% 30.09 in - Variable 5.8 mph - N/A   Unknown
6:51 PM 54.0 °F - 25.0 °F 33% 30.09 in - SW 4.6 mph - N/A   Unknown
7:51 PM 46.9 °F - 27.0 °F 46% 30.12 in - South 4.6 mph - N/A   Unknown
8:51 PM 42.1 °F 38.4 °F 27.0 °F 55% 30.11 in - SSE 5.8 mph - N/A   Unknown
9:51 PM 39.9 °F 37.8 °F 27.0 °F 60% 30.10 in - SE 3.5 mph - N/A   Unknown
10:51 PM 39.9 °F 34.5 °F 27.0 °F 60% 30.06 in - SE 8.1 mph - N/A   Unknown
11:51 PM 39.0 °F 36.8 °F 27.0 °F 62% 30.03 in - SE 3.5 mph - N/A   Unknown